When you browse on this site, cookies collect data to enhance your experience and personalize the content and advertising you see.
Visit our Privacy Policy to learn more. By continuing to use the site, you agree to this use of cookies and data.

Hourly Weather Santiago de Compostela

Today, 9 July, Thursday

Time Temperature Precipitation Wind Pressure Humidity
00:00 +16°C° 0 mm 2 mps 742 mmHg 85%
01:00 +16°C° 0 mm 2 mps 741 mmHg 86%
02:00 +16°C° 0 mm 2 mps 741 mmHg 87%
03:00 +16°C° 0 mm 2 mps 741 mmHg 88%
04:00 +16°C° 0 mm 2 mps 742 mmHg 88%
05:00 +16°C° 0 mm 2 mps 742 mmHg 88%
06:00 +18°C° 0 mm 2 mps 742 mmHg 75%
07:00 +20°C° 0 mm 3 mps 743 mmHg 63%
08:00 +24°C° 0 mm 3 mps 743 mmHg 50%
09:00 +25°C° 0 mm 3 mps 743 mmHg 44%
10:00 +27°C° 0 mm 3 mps 743 mmHg 38%
11:00 +29°C° 0 mm 3 mps 743 mmHg 32%
12:00 +28°C° 0 mm 3 mps 743 mmHg 34%
13:00 +28°C° 0 mm 4 mps 743 mmHg 35%
14:00 +28°C° 0 mm 4 mps 742 mmHg 36%
15:00 +26°C° 0 mm 4 mps 742 mmHg 43%
16:00 +25°C° 0 mm 3 mps 742 mmHg 50%
17:00 +24°C° 0 mm 3 mps 742 mmHg 57%
18:00 +21°C° 0 mm 3 mps 743 mmHg 68%
19:00 +19°C° 0 mm 2 mps 743 mmHg 78%
20:00 +17°C° 0 mm 2 mps 743 mmHg 89%
21:00 +17°C° 0 mm 2 mps 743 mmHg 90%
22:00 +17°C° 0 mm 2 mps 743 mmHg 91%
23:00 +17°C° 0 mm 2 mps 743 mmHg 91%

Tomorrow, 10 July, Friday

Time Temperature Precipitation Wind Pressure Humidity
00:00 +17°C° 0 mm 2 mps 743 mmHg 91%
01:00 +16°C° 0 mm 2 mps 743 mmHg 92%
02:00 +16°C° 0 mm 2 mps 743 mmHg 92%
03:00 +16°C° 0 mm 2 mps 743 mmHg 89%
04:00 +16°C° 0 mm 3 mps 743 mmHg 86%
05:00 +16°C° 0 mm 3 mps 743 mmHg 84%
06:00 +18°C° 0 mm 3 mps 743 mmHg 77%
07:00 +19°C° 0 mm 3 mps 743 mmHg 70%
08:00 +20°C° 0 mm 3 mps 743 mmHg 64%
09:00 +22°C° 0 mm 3 mps 743 mmHg 59%
10:00 +23°C° 0 mm 4 mps 743 mmHg 54%
11:00 +25°C° 0 mm 4 mps 743 mmHg 50%
12:00 +25°C° 0 mm 4 mps 743 mmHg 49%
13:00 +26°C° 0 mm 4 mps 743 mmHg 48%
14:00 +26°C° 0 mm 4 mps 742 mmHg 47%
15:00 +25°C° 0 mm 4 mps 742 mmHg 51%
16:00 +22°C° 0 mm 5 mps 742 mmHg 54%
17:00 +21°C° 0 mm 5 mps 742 mmHg 57%
18:00 +20°C° 0 mm 4 mps 742 mmHg 64%
19:00 +18°C° 0 mm 4 mps 743 mmHg 70%
20:00 +17°C° 0 mm 4 mps 743 mmHg 76%
21:00 +15°C° 0 mm 4 mps 743 mmHg 78%
22:00 +15°C° 0 mm 4 mps 743 mmHg 80%
23:00 +15°C° 0 mm 4 mps 743 mmHg 81%

Day after tomorrow, 11 July, Saturday

Time Temperature Precipitation Wind Pressure Humidity
00:00 +14°C° 0 mm 4 mps 742 mmHg 82%
01:00 +14°C° 0 mm 4 mps 742 mmHg 82%
02:00 +14°C° 0 mm 4 mps 742 mmHg 82%
03:00 +14°C° 0 mm 4 mps 742 mmHg 82%
04:00 +14°C° 0 mm 4 mps 742 mmHg 82%
05:00 +15°C° 0 mm 4 mps 742 mmHg 81%
06:00 +18°C° 0 mm 4 mps 742 mmHg 73%
07:00 +20°C° 0 mm 4 mps 742 mmHg 66%
08:00 +22°C° 0 mm 3 mps 742 mmHg 58%
09:00 +25°C° 0 mm 3 mps 742 mmHg 53%
10:00 +27°C° 0 mm 3 mps 741 mmHg 48%
11:00 +29°C° 0 mm 3 mps 741 mmHg 43%
12:00 +30°C° 0 mm 3 mps 741 mmHg 41%
13:00 +31°C° 0 mm 3 mps 741 mmHg 40%
14:00 +33°C° 0 mm 3 mps 741 mmHg 39%
15:00 +31°C° 0 mm 3 mps 740 mmHg 43%
16:00 +30°C° 0 mm 3 mps 740 mmHg 47%
17:00 +29°C° 0 mm 3 mps 740 mmHg 51%
18:00 +26°C° 0 mm 3 mps 740 mmHg 60%
19:00 +22°C° 0 mm 3 mps 740 mmHg 68%
20:00 +20°C° 0 mm 3 mps 740 mmHg 77%
21:00 +19°C° 0 mm 3 mps 740 mmHg 80%
22:00 +18°C° 0 mm 2 mps 739 mmHg 84%
23:00 +18°C° 0 mm 2 mps 739 mmHg 87%

12 July, Sunday

Time Temperature Precipitation Wind Pressure Humidity
00:00 +17°C° 0.1 mm 2 mps 739 mmHg 89%
01:00 +17°C° 0.1 mm 2 mps 739 mmHg 90%
02:00 +17°C° 0.1 mm 2 mps 738 mmHg 91%
03:00 +17°C° 0.5 mm 2 mps 739 mmHg 92%
04:00 +18°C° 0.5 mm 1 mps 739 mmHg 94%
05:00 +18°C° 0.5 mm 1 mps 739 mmHg 95%
06:00 +20°C° 0.2 mm 1 mps 739 mmHg 87%
07:00 +21°C° 0.2 mm 2 mps 739 mmHg 80%
08:00 +24°C° 0.2 mm 2 mps 740 mmHg 72%
09:00 +27°C° 0 mm 1 mps 740 mmHg 61%
10:00 +30°C° 0 mm 1 mps 740 mmHg 50%
11:00 +33°C° 0 mm 1 mps 741 mmHg 40%
12:00 +34°C° 0 mm 1 mps 741 mmHg 38%
13:00 +35°C° 0 mm 2 mps 741 mmHg 36%
14:00 +36°C° 0 mm 2 mps 741 mmHg 34%
15:00 +34°C° 0 mm 2 mps 741 mmHg 39%
16:00 +32°C° 0 mm 2 mps 740 mmHg 43%
17:00 +31°C° 0 mm 2 mps 740 mmHg 48%
18:00 +28°C° 0 mm 2 mps 741 mmHg 58%
19:00 +25°C° 0 mm 2 mps 741 mmHg 68%
20:00 +22°C° 0 mm 1 mps 742 mmHg 78%
21:00 +21°C° 0 mm 1 mps 742 mmHg 80%
22:00 +19°C° 0 mm 2 mps 742 mmHg 83%
23:00 +18°C° 0 mm 2 mps 742 mmHg 85%

13 July, Monday

Time Temperature Precipitation Wind Pressure Humidity
00:00 +17°C° 0 mm 2 mps 742 mmHg 88%
01:00 +17°C° 0 mm 2 mps 741 mmHg 90%
02:00 +16°C° 0 mm 2 mps 741 mmHg 93%
03:00 +16°C° 0 mm 2 mps 741 mmHg 92%
04:00 +17°C° 0 mm 2 mps 742 mmHg 91%
05:00 +17°C° 0 mm 2 mps 742 mmHg 91%
06:00 +19°C° 0 mm 2 mps 742 mmHg 81%
07:00 +21°C° 0 mm 2 mps 742 mmHg 71%
08:00 +25°C° 0 mm 2 mps 742 mmHg 61%
09:00 +27°C° 0 mm 2 mps 742 mmHg 56%
10:00 +28°C° 0 mm 3 mps 743 mmHg 51%
11:00 +30°C° 0 mm 3 mps 743 mmHg 46%
12:00 +30°C° 0 mm 4 mps 742 mmHg 47%
13:00 +30°C° 0 mm 4 mps 742 mmHg 47%
14:00 +29°C° 0 mm 4 mps 742 mmHg 48%
15:00 +28°C° 0 mm 4 mps 742 mmHg 52%
16:00 +26°C° 0 mm 5 mps 742 mmHg 56%
17:00 +23°C° 0 mm 5 mps 742 mmHg 60%
18:00 +22°C° 0 mm 4 mps 742 mmHg 65%
19:00 +20°C° 0 mm 4 mps 743 mmHg 70%
20:00 +18°C° 0 mm 4 mps 743 mmHg 75%
21:00 +18°C° 0 mm 4 mps 743 mmHg 79%
22:00 +17°C° 0 mm 3 mps 743 mmHg 82%
23:00 +16°C° 0 mm 3 mps 743 mmHg 86%

14 July, Tuesday

Time Temperature Precipitation Wind Pressure Humidity
00:00 +16°C° 0 mm 3 mps 743 mmHg 88%
01:00 +16°C° 0 mm 3 mps 742 mmHg 89%
02:00 +14°C° 0 mm 3 mps 742 mmHg 90%
03:00 +16°C° 0 mm 3 mps 742 mmHg 88%
04:00 +16°C° 0 mm 3 mps 743 mmHg 87%
05:00 +16°C° 0 mm 3 mps 743 mmHg 85%
06:00 +17°C° 0 mm 4 mps 743 mmHg 79%
07:00 +18°C° 0 mm 4 mps 743 mmHg 73%
08:00 +19°C° 0 mm 4 mps 743 mmHg 67%
09:00 +20°C° 0 mm 4 mps 743 mmHg 60%
10:00 +21°C° 0 mm 5 mps 742 mmHg 53%
11:00 +23°C° 0 mm 5 mps 742 mmHg 47%
12:00 +23°C° 0 mm 5 mps 742 mmHg 45%
13:00 +23°C° 0 mm 5 mps 742 mmHg 44%
14:00 +23°C° 0 mm 5 mps 741 mmHg 43%
15:00 +22°C° 0 mm 5 mps 741 mmHg 48%
16:00 +22°C° 0 mm 5 mps 741 mmHg 52%
17:00 +21°C° 0 mm 5 mps 741 mmHg 57%
18:00 +19°C° 0 mm 5 mps 741 mmHg 63%
19:00 +17°C° 0 mm 5 mps 741 mmHg 69%
20:00 +15°C° 0 mm 5 mps 742 mmHg 75%
21:00 +15°C° 0 mm 5 mps 742 mmHg 75%
22:00 +15°C° 0 mm 5 mps 742 mmHg 75%
23:00 +15°C° 0 mm 4 mps 742 mmHg 76%
Show more